Total_Precipitation_Accumulation
0.34 0.38 0.55 0.50 0.33 0.31 0.50 0.49 0.52 0.34 0.33 0.38 0.41 0.48 0.48 0.45 0.38 0.30 0.28 0.29 0.34 0.45 0.48 0.46 0.50 0.52 0.51 0.54 0.60 0.65 0.68 0.67 0.65 0.65 0.65 0.69 0.75 0.76 0.74 0.75 0.75 0.79 0.89 0.97
0.38 0.35 0.45 0.39 0.23 0.22 0.25 0.26 0.29 0.25 0.33 0.34 0.38 0.43 0.46 0.44 0.35 0.27 0.25 0.26 0.29 0.37 0.52 0.47 0.51 0.59 0.58 0.60 0.68 0.71 0.74 0.71 0.70 0.66 0.64 0.62 0.63 0.64 0.65 0.67 0.66 0.70 0.77 0.82
0.63 0.32 0.42 0.41 0.28 0.26 0.26 0.26 0.27 0.34 0.35 0.29 0.35 0.42 0.43 0.37 0.28 0.24 0.23 0.24 0.27 0.33 0.48 0.55 0.57 0.65 0.72 0.73 0.77 0.77 0.79 0.73 0.69 0.66 0.63 0.61 0.59 0.59 0.62 0.66 0.68 0.73 0.77 0.82
0.87 0.55 0.61 0.43 0.30 0.28 0.28 0.28 0.25 0.27 0.24 0.24 0.30 0.34 0.32 0.27 0.24 0.21 0.20 0.20 0.24 0.29 0.35 0.47 0.50 0.56 0.66 0.72 0.82 0.82 0.81 0.80 0.78 0.78 0.79 0.81 0.81 0.82 0.82 0.80 0.83 0.90 0.95 0.99
0.85 0.63 0.36 0.21 0.18 0.27 0.34 0.33 0.25 0.21 0.18 0.16 0.18 0.25 0.30 0.24 0.23 0.24 0.22 0.21 0.21 0.25 0.27 0.33 0.40 0.45 0.52 0.65 0.82 0.93 0.98 0.99 1.01 1.04 1.09 1.12 1.14 1.14 1.14 1.15 1.14 1.12 1.10 1.06
0.81 0.68 0.36 0.23 0.11 0.13 0.24 0.39 0.20 0.15 0.15 0.14 0.15 0.26 0.34 0.30 0.26 0.25 0.24 0.23 0.22 0.23 0.25 0.29 0.38 0.45 0.57 0.75 0.93 1.06 1.10 1.11 1.15 1.21 1.28 1.26 1.24 1.21 1.13 1.11 1.13 1.11 1.09 1.05
0.69 0.66 0.37 0.23 0.11 0.09 0.34 0.47 0.21 0.16 0.17 0.18 0.22 0.30 0.27 0.24 0.27 0.27 0.28 0.31 0.33 0.34 0.37 0.40 0.45 0.55 0.72 0.84 0.97 1.04 1.04 1.05 1.05 1.05 1.07 1.05 1.03 0.99 0.95 0.91 0.87 0.85 0.81 0.77
0.50 0.68 0.51 0.27 0.18 0.32 0.45 0.28 0.21 0.16 0.16 0.18 0.19 0.18 0.16 0.15 0.18 0.22 0.25 0.32 0.41 0.48 0.52 0.52 0.55 0.65 0.74 0.79 0.83 0.81 0.79 0.77 0.75 0.70 0.66 0.67 0.69 0.70 0.68 0.68 0.66 0.64 0.60 0.58
0.51 0.57 0.46 0.34 0.37 0.41 0.33 0.27 0.20 0.18 0.16 0.16 0.16 0.16 0.14 0.12 0.12 0.13 0.14 0.18 0.23 0.31 0.38 0.38 0.38 0.43 0.48 0.47 0.45 0.44 0.42 0.43 0.42 0.40 0.39 0.40 0.43 0.46 0.49 0.51 0.52 0.53 0.53 0.54
0.42 0.41 0.33 0.30 0.30 0.30 0.27 0.27 0.23 0.20 0.19 0.17 0.18 0.17 0.16 0.13 0.12 0.11 0.11 0.13 0.14 0.16 0.19 0.20 0.21 0.22 0.25 0.24 0.21 0.22 0.26 0.29 0.32 0.32 0.33 0.34 0.37 0.41 0.45 0.47 0.48 0.49 0.51 0.52
0.38 0.32 0.28 0.24 0.23 0.24 0.23 0.21 0.20 0.19 0.18 0.18 0.19 0.19 0.17 0.16 0.15 0.14 0.14 0.14 0.15 0.16 0.17 0.19 0.19 0.19 0.19 0.20 0.18 0.19 0.20 0.24 0.28 0.32 0.35 0.35 0.35 0.39 0.46 0.49 0.56 0.63 0.62 0.59
0.44 0.31 0.34 0.29 0.21 0.20 0.19 0.18 0.19 0.20 0.21 0.21 0.20 0.22 0.20 0.19 0.18 0.18 0.18 0.17 0.17 0.18 0.20 0.23 0.25 0.27 0.26 0.25 0.23 0.23 0.24 0.25 0.29 0.33 0.36 0.38 0.38 0.37 0.42 0.48 0.53 0.58 0.62 0.63
0.33 0.26 0.27 0.24 0.19 0.17 0.17 0.19 0.19 0.18 0.20 0.20 0.19 0.20 0.20 0.21 0.21 0.20 0.20 0.22 0.24 0.25 0.28 0.29 0.29 0.30 0.31 0.30 0.30 0.30 0.31 0.33 0.35 0.37 0.38 0.39 0.41 0.43 0.42 0.42 0.46 0.51 0.55 0.59
0.22 0.21 0.23 0.21 0.20 0.17 0.17 0.18 0.18 0.17 0.18 0.19 0.18 0.18 0.18 0.18 0.18 0.20 0.24 0.27 0.28 0.27 0.28 0.30 0.30 0.32 0.34 0.34 0.35 0.35 0.35 0.40 0.43 0.42 0.44 0.46 0.47 0.48 0.50 0.50 0.47 0.44 0.48 0.57
0.18 0.21 0.26 0.24 0.21 0.19 0.19 0.19 0.18 0.19 0.20 0.20 0.20 0.19 0.18 0.18 0.18 0.19 0.21 0.23 0.24 0.24 0.25 0.26 0.26 0.30 0.32 0.34 0.36 0.37 0.37 0.39 0.42 0.45 0.48 0.51 0.51 0.52 0.53 0.52 0.50 0.45 0.43 0.48
0.22 0.20 0.20 0.21 0.23 0.24 0.23 0.21 0.21 0.22 0.22 0.22 0.22 0.22 0.21 0.20 0.19 0.19 0.18 0.17 0.20 0.22 0.24 0.26 0.28 0.30 0.30 0.33 0.36 0.37 0.39 0.46 0.47 0.46 0.48 0.51 0.53 0.53 0.53 0.52 0.50 0.48 0.46 0.48
0.33 0.31 0.29 0.30 0.28 0.28 0.29 0.28 0.27 0.27 0.26 0.24 0.24 0.23 0.21 0.19 0.17 0.17 0.18 0.19 0.21 0.23 0.24 0.27 0.30 0.30 0.30 0.33 0.36 0.39 0.40 0.44 0.50 0.47 0.46 0.50 0.55 0.58 0.57 0.56 0.54 0.50 0.47 0.54
0.39 0.42 0.43 0.45 0.44 0.40 0.36 0.33 0.31 0.29 0.29 0.29 0.26 0.23 0.22 0.22 0.22 0.22 0.24 0.23 0.23 0.23 0.24 0.26 0.28 0.29 0.30 0.33 0.38 0.41 0.42 0.44 0.47 0.50 0.52 0.56 0.61 0.63 0.63 0.62 0.61 0.59 0.56 0.59
0.35 0.37 0.38 0.41 0.43 0.43 0.40 0.38 0.37 0.35 0.33 0.30 0.28 0.28 0.26 0.26 0.26 0.27 0.26 0.26 0.24 0.25 0.26 0.26 0.29 0.29 0.29 0.35 0.43 0.44 0.46 0.49 0.50 0.52 0.55 0.61 0.64 0.60 0.61 0.64 0.64 0.64 0.65 0.66
0.32 0.31 0.32 0.36 0.38 0.39 0.39 0.38 0.37 0.36 0.35 0.34 0.32 0.30 0.28 0.28 0.29 0.29 0.27 0.27 0.29 0.31 0.29 0.29 0.29 0.27 0.29 0.33 0.42 0.46 0.48 0.51 0.53 0.55 0.56 0.58 0.58 0.57 0.57 0.59 0.62 0.64 0.65 0.66
0.34 0.32 0.32 0.33 0.36 0.37 0.37 0.37 0.37 0.38 0.38 0.36 0.36 0.35 0.33 0.32 0.32 0.32 0.30 0.29 0.28 0.27 0.26 0.27 0.26 0.27 0.33 0.43 0.47 0.44 0.45 0.49 0.51 0.53 0.55 0.56 0.56 0.54 0.54 0.56 0.58 0.60 0.61 0.62
0.35 0.35 0.34 0.35 0.36 0.39 0.39 0.39 0.38 0.38 0.36 0.35 0.35 0.34 0.33 0.32 0.30 0.28 0.28 0.29 0.28 0.30 0.30 0.26 0.26 0.35 0.49 0.55 0.46 0.40 0.42 0.46 0.49 0.52 0.53 0.53 0.53 0.53 0.52 0.53 0.56 0.56 0.58 0.60
0.36 0.36 0.35 0.34 0.34 0.34 0.33 0.33 0.34 0.34 0.35 0.36 0.36 0.35 0.33 0.32 0.30 0.30 0.29 0.26 0.26 0.30 0.32 0.29 0.35 0.47 0.56 0.51 0.43 0.43 0.46 0.48 0.49 0.50 0.51 0.53 0.54 0.56 0.56 0.54 0.55 0.56 0.57 0.57
0.29 0.29 0.30 0.29 0.26 0.24 0.25 0.27 0.28 0.28 0.29 0.30 0.30 0.29 0.28 0.27 0.24 0.23 0.24 0.25 0.28 0.33 0.32 0.32 0.39 0.46 0.47 0.42 0.41 0.46 0.48 0.49 0.49 0.49 0.49 0.50 0.50 0.51 0.52 0.51 0.51 0.49 0.50 0.51
0.24 0.23 0.21 0.20 0.19 0.19 0.19 0.20 0.19 0.20 0.21 0.22 0.23 0.23 0.23 0.24 0.26 0.24 0.22 0.21 0.23 0.28 0.28 0.28 0.33 0.36 0.36 0.35 0.39 0.43 0.45 0.46 0.51 0.54 0.52 0.49 0.48 0.48 0.47 0.46 0.48 0.47 0.46 0.45
0.21 0.19 0.19 0.18 0.18 0.18 0.17 0.16 0.16 0.16 0.17 0.18 0.19 0.20 0.22 0.23 0.23 0.23 0.22 0.22 0.23 0.26 0.26 0.26 0.27 0.30 0.32 0.34 0.37 0.39 0.40 0.41 0.43 0.44 0.44 0.45 0.44 0.44 0.42 0.41 0.41 0.42 0.42 0.42
0.15 0.14 0.13 0.13 0.13 0.13 0.14 0.15 0.15 0.15 0.15 0.17 0.20 0.20 0.20 0.21 0.22 0.22 0.22 0.22 0.24 0.25 0.24 0.24 0.26 0.29 0.31 0.33 0.34 0.34 0.34 0.35 0.37 0.38 0.39 0.40 0.40 0.39 0.37 0.38 0.38 0.39 0.39 0.39